Regional Weather Roundup
Issued by NWS Albany, NY

Home | Current Version | Previous Version | Text Only | Print | Product List | Glossary On
Versions: 1 2 3 4 5 6 7 8 9 10 11 12 13 14 15 16 17 18 19 20 21 22 23 24 25 26 27 28 29 30 31 32 33 34 35 36 37 38 39 40 41 42 43 44 45 46 47 48 49 50
000
ASUS41 KALY 022210
RWRALY

NEW YORK STATE HOURLY WEATHER ROUNDUP
NATIONAL WEATHER SERVICE ALBANY NY
600 PM EDT TUE JUN 02 2015

NOTE: "FAIR" INDICATES FEW OR NO CLOUDS BELOW 12,000 FEET WITH NO
SIGNIFICANT WEATHER AND/OR NO OBSTRUCTIONS TO VISIBILITY.

NYZ032-033-038>043-046>054-057>066-NYZ062>081-022300-
EAST


CITY           SKY/WX    TMP DP  RH WIND       PRES   REMARKS
ALBANY         CLOUDY    62  48  60 CALM      30.13F
GLENS FALLS    PTSUNNY   61  49  64 SE3       30.12S
POUGHKEEPSIE   CLOUDY    58  50  75 CALM      30.13R
NEWBURGH       CLOUDY    55  52  88 E5        30.15R
MONTGOMERY     CLOUDY    57  35  43 NE5       30.13R
WHITE PLAINS   LGT RAIN  54  52  93 CALM      30.13R
ISLIP          LGT RAIN  52  50  93 NE7       30.11R
NEW YORK CITY  LGT RAIN  54  50  86 NE7       30.13R
CENTRAL PARK   LGT RAIN  54  51  90 E5        30.16R
$$

NYZ005>009-017-018-044>046-055-056-022300-
CENTRAL


CITY           SKY/WX    TMP DP  RH WIND       PRES   REMARKS
FULTON         MOSUNNY   61  47  59 NE9       30.16F
SYRACUSE       PTSUNNY   63  51  65 NW9       30.15S
ROME           CLOUDY    62  52  69 N7        30.14F
ELMIRA         CLOUDY    61  51  70 E7        30.14F
BINGHAMTON     CLOUDY    58  48  69 N6        30.13F
MONTICELLO     CLOUDY    54  52  94 E3        30.13S
$$

NYZ026>034-041>043-022300-
NORTH


CITY           SKY/WX    TMP DP  RH WIND       PRES   REMARKS
WATERTOWN      PTSUNNY   60  45  57 NE10      30.17F
FORT DRUM      NOT AVBL
MASSENA        CLOUDY    55  47  74 NE7       30.21R
SARANAC LAKE   CLOUDY    51  45  79 N9        30.16R
PLATTSBURGH    CLOUDY    52  48  86 N15       30.19R
$$

NYZ001>004-010>016-019>021-022300-
WEST


CITY           SKY/WX    TMP DP  RH WIND       PRES   REMARKS
NIAGARA FALLS  MOSUNNY   66  44  45 E14       30.14F
BUFFALO        PTSUNNY   66  43  43 E13       30.15F
DUNKIRK        SUNNY     64  48  56 N13       30.14S
JAMESTOWN      MOSUNNY   63  45  51 NE9       30.14F
WELLSVILLE     MOSUNNY   64  43  46 NE10      30.15F
ROCHESTER      PTSUNNY   63  46  54 E9        30.17F
PENN YAN       MOSUNNY   60  49  66 NW8       30.16F
$$

             KEY
       WCI = WIND CHILL INDEX
       VSB = VISIBILITY
       HX  = HEAT INDEX
$$


USA.gov is the U.S. government's official web portal to all federal, state and local government web resources and services.